Springfield, OH

3:43 AM EDT on April 25, 2017 (GMT -0400)
Springfield-Beckley Municipal

Weather History for KSGH - March, 2013

Change the Weather History Date:

Tuesday, March 12, 2013

  Actual Average (KFFO) Record (KFFO)
Temperature  
Mean Temperature 34 °F -  
Max Temperature 37 °F 45 °F 67 °F (2016)
Min Temperature 30 °F 25 °F 6 °F (1999)
Degree Days  
Heating Degree Days 32    
Moisture  
Dew Point 28 °F    
Average Humidity 80    
Maximum Humidity 93    
Minimum Humidity 68    
Precipitation  
Precipitation 0.00 in - - ()
Sea Level Pressure  
Sea Level Pressure 29.97 in    
Wind  
Wind Speed 14 mph (WSW)    
Max Wind Speed 18 mph    
Max Gust Speed 26 mph    
Visibility 7 miles    
Events Snow    
Averages and records for this station are not official NWS values.
T = Trace of Precipitation, MM = Missing Value Source: NWS Daily Summary

Daily Weather History Graph

Daily Weather History Graph

Search for Another Location

Airport or City:

Trip Planner

Search our weather history database for the weather conditions in past years. The results will help you decide how hot, cold, wet, or windy it might be!

Date:

Astronomy

Mar. 12, 2013 Rise Set
Actual Time 7:51 AM EDT 7:39 PM EDT
Civil Twilight 7:24 AM EDT 8:06 PM EDT
Nautical Twilight 6:53 AM EDT 8:37 PM EDT
Astronomical Twilight 6:21 AM EDT 9:09 PM EDT
Moon 7:57 AM EDT (3/12) 8:53 PM EDT (3/12)
Length of Visible Light 12h 42m
Length of Day
11h 48m
New Moon, 1% of the Moon is Illuminated
Mar 12
New Moon
Mar 19
First Quarter
Mar 27
Full
Apr 3
Last Quarter
Apr 10
New

Hourly Weather History & Observations

Time (EDT) Temp. Windchill Dew Point Humidity Pressure Visibility Wind Dir Wind Speed Gust Speed Precip Events Conditions
12:56 AM 34.9 °F 24.6 °F 30.0 °F 82% 29.86 in 9.0 mi West 17.3 mph - N/A   Overcast
1:56 AM 34.0 °F 25.0 °F 29.1 °F 82% 29.87 in 9.0 mi West 12.7 mph - N/A   Overcast
2:56 AM 34.0 °F 23.0 °F 29.1 °F 82% 29.88 in 8.0 mi West 18.4 mph 25.3 mph N/A   Overcast
3:56 AM 32.9 °F 22.8 °F 29.1 °F 86% 29.90 in 8.0 mi West 15.0 mph - N/A   Overcast
4:03 AM 33.8 °F 24.3 °F 28.4 °F 81% 29.88 in 8.0 mi West 13.8 mph - N/A   Overcast
4:56 AM 32.0 °F 21.6 °F 27.1 °F 82% 29.90 in 8.0 mi West 15.0 mph - 0.00 in   Overcast
5:56 AM 32.0 °F 22.5 °F 27.1 °F 82% 29.91 in 8.0 mi WSW 12.7 mph - N/A   Overcast
6:56 AM 32.0 °F 23.0 °F 28.0 °F 85% 29.94 in 7.0 mi WSW 11.5 mph - N/A   Overcast
7:56 AM 32.0 °F 23.6 °F 28.0 °F 85% 29.94 in 7.0 mi West 10.4 mph - 0.00 in   Overcast
8:56 AM 32.0 °F 22.5 °F 28.0 °F 85% 29.96 in 3.0 mi WSW 12.7 mph - 0.00 in   Overcast
9:06 AM 30.2 °F 20.8 °F 28.4 °F 93% 29.94 in 3.0 mi WSW 11.5 mph - 0.00 in   Overcast
9:56 AM 31.1 °F 21.4 °F 28.0 °F 88% 29.99 in 4.0 mi West 12.7 mph - 0.00 in   Overcast
10:56 AM 32.0 °F 21.6 °F 27.1 °F 82% 30.01 in 5.0 mi West 15.0 mph - 0.00 in   Overcast
11:38 AM 33.8 °F 24.8 °F 26.6 °F 75% 29.97 in 7.0 mi WSW 12.7 mph - 0.00 in   Mostly Cloudy
11:56 AM 34.0 °F 24.6 °F 27.1 °F 76% 29.99 in 7.0 mi West 13.8 mph - 0.00 in   Mostly Cloudy
12:34 PM 33.8 °F 24.3 °F 26.6 °F 75% 29.98 in 7.0 mi West 13.8 mph - N/A   Overcast
12:56 PM 32.9 °F 22.0 °F 27.1 °F 79% 30.01 in 7.0 mi WSW 17.3 mph 21.9 mph 0.00 in   Overcast
1:56 PM 32.9 °F 22.8 °F 28.0 °F 82% 30.01 in 7.0 mi West 15.0 mph - N/A   Overcast
2:56 PM 32.9 °F 22.4 °F 27.1 °F 79% 30.00 in 7.0 mi WSW 16.1 mph - N/A   Overcast
3:56 PM 36.0 °F 27.1 °F 28.0 °F 73% 29.98 in 7.0 mi West 13.8 mph - N/A   Overcast
4:56 PM 36.0 °F 26.7 °F 27.1 °F 70% 30.00 in 8.0 mi WSW 15.0 mph - N/A   Overcast
5:14 PM 37.4 °F 29.3 °F 28.4 °F 70% 29.97 in 8.0 mi WSW 12.7 mph - N/A   Overcast
5:56 PM 36.9 °F 29.1 °F 28.0 °F 70% 29.99 in 8.0 mi West 11.5 mph - N/A   Overcast
6:56 PM 36.9 °F 29.1 °F 28.0 °F 70% 30.00 in 8.0 mi West 11.5 mph - N/A   Mostly Cloudy
7:56 PM 36.9 °F 30.1 °F 27.1 °F 68% 30.01 in 9.0 mi West 9.2 mph - N/A   Mostly Cloudy
8:56 PM 32.9 °F 23.7 °F 29.1 °F 86% 30.04 in 9.0 mi WNW 12.7 mph - N/A   Overcast
9:56 PM 32.0 °F 26.4 °F 27.1 °F 82% 30.03 in 9.0 mi SW 5.8 mph - N/A   Clear
10:56 PM 31.1 °F 25.4 °F 26.1 °F 82% 30.03 in 9.0 mi SW 5.8 mph - N/A   Mostly Cloudy
11:46 PM 32.0 °F 21.2 °F 28.4 °F 87% 30.02 in 2.5 mi West 16.1 mph 26.5 mph 0.00 in Snow Light Snow
11:49 PM 32.0 °F 21.6 °F 28.4 °F 87% 30.02 in 1.8 mi West 15.0 mph - 0.00 in Snow Light Snow
11:56 PM 31.1 °F 21.9 °F 28.0 °F 88% 30.05 in 1.8 mi West 11.5 mph - 0.00 in Snow Light Snow